When you browse on this site, cookies collect data to enhance your experience and personalize the content and advertising you see.
Visit our Privacy Policy to learn more. By continuing to use the site, you agree to this use of cookies and data.
  • Em Portugal
  • Lista de países
  • Para 7 dias
  • Temperatura da água
  • Mapas de satélite
  • Mapa do tempo
  • Widgets de tempo
  • user-avatar
    Iniciar Sessão

    Previsão horária em Emona

    Hoje, 19 Fevereiro, Terça-feira

    Tempo Temperatura Precipitação Vento Pressão Humidade
    00:00 +8°C° 0 mm 1 m/s 767 mmHg 75%
    01:00 +8°C° 0 mm 1 m/s 767 mmHg 77%
    02:00 +8°C° 0 mm 1 m/s 767 mmHg 78%
    03:00 +7°C° 0 mm 1 m/s 767 mmHg 78%
    04:00 +7°C° 0 mm 1 m/s 767 mmHg 79%
    05:00 +7°C° 0 mm 1 m/s 767 mmHg 79%
    06:00 +7°C° 0 mm 1 m/s 767 mmHg 79%
    07:00 +7°C° 0 mm 1 m/s 767 mmHg 79%
    08:00 +8°C° 0 mm 1 m/s 767 mmHg 79%
    09:00 +9°C° 0 mm 1 m/s 767 mmHg 73%
    10:00 +10°C° 0 mm 2 m/s 767 mmHg 67%
    11:00 +13°C° 0 mm 2 m/s 767 mmHg 60%
    12:00 +13°C° 0 mm 3 m/s 767 mmHg 58%
    13:00 +13°C° 0 mm 3 m/s 766 mmHg 56%
    14:00 +14°C° 0 mm 3 m/s 766 mmHg 54%
    15:00 +13°C° 0 mm 3 m/s 766 mmHg 58%
    16:00 +13°C° 0 mm 3 m/s 766 mmHg 63%
    17:00 +12°C° 0 mm 4 m/s 765 mmHg 68%
    18:00 +11°C° 0 mm 3 m/s 765 mmHg 74%
    19:00 +10°C° 0 mm 3 m/s 765 mmHg 81%
    20:00 +9°C° 0 mm 3 m/s 765 mmHg 88%
    21:00 +8°C° 0 mm 3 m/s 765 mmHg 88%
    22:00 +8°C° 0 mm 2 m/s 765 mmHg 89%
    23:00 +8°C° 0 mm 2 m/s 765 mmHg 89%

    Amanhã, 20 Fevereiro, Quarta-feira

    Tempo Temperatura Precipitação Vento Pressão Humidade
    00:00 +7°C° 0 mm 2 m/s 765 mmHg 88%
    01:00 +8°C° 0 mm 1 m/s 765 mmHg 88%
    02:00 +8°C° 0 mm 1 m/s 765 mmHg 88%
    03:00 +8°C° 0 mm 1 m/s 764 mmHg 87%
    04:00 +7°C° 0 mm 2 m/s 764 mmHg 86%
    05:00 +6°C° 0 mm 2 m/s 764 mmHg 85%
    06:00 +6°C° 0 mm 2 m/s 764 mmHg 84%
    07:00 +7°C° 0 mm 2 m/s 764 mmHg 82%
    08:00 +7°C° 0 mm 2 m/s 764 mmHg 81%
    09:00 +9°C° 0 mm 2 m/s 764 mmHg 73%
    10:00 +11°C° 0 mm 3 m/s 763 mmHg 66%
    11:00 +13°C° 0 mm 3 m/s 763 mmHg 58%
    12:00 +14°C° 0 mm 3 m/s 763 mmHg 54%
    13:00 +16°C° 0 mm 3 m/s 763 mmHg 50%
    14:00 +17°C° 0 mm 3 m/s 763 mmHg 46%
    15:00 +17°C° 0 mm 2 m/s 762 mmHg 47%
    16:00 +16°C° 0 mm 2 m/s 762 mmHg 49%
    17:00 +16°C° 0 mm 2 m/s 762 mmHg 50%
    18:00 +14°C° 0 mm 2 m/s 763 mmHg 53%
    19:00 +13°C° 0 mm 2 m/s 763 mmHg 56%
    20:00 +12°C° 0 mm 2 m/s 763 mmHg 59%
    21:00 +10°C° 0 mm 2 m/s 764 mmHg 61%
    22:00 +10°C° 0 mm 3 m/s 764 mmHg 63%
    23:00 +9°C° 0 mm 3 m/s 764 mmHg 65%

    Depois de amanhã, 21 Fevereiro, Quinta-feira

    Tempo Temperatura Precipitação Vento Pressão Humidade
    00:00 +9°C° 0 mm 3 m/s 765 mmHg 67%
    01:00 +8°C° 0 mm 4 m/s 765 mmHg 70%
    02:00 +7°C° 0 mm 4 m/s 765 mmHg 72%
    03:00 +7°C° 0 mm 4 m/s 765 mmHg 73%
    04:00 +6°C° 0 mm 4 m/s 765 mmHg 74%
    05:00 +7°C° 0 mm 3 m/s 765 mmHg 75%
    06:00 +7°C° 0 mm 3 m/s 766 mmHg 76%
    07:00 +7°C° 0 mm 3 m/s 766 mmHg 76%
    08:00 +7°C° 0 mm 3 m/s 767 mmHg 77%
    09:00 +8°C° 0 mm 2 m/s 767 mmHg 72%
    10:00 +9°C° 0 mm 2 m/s 767 mmHg 67%
    11:00 +12°C° 0 mm 2 m/s 768 mmHg 62%
    12:00 +12°C° 0 mm 2 m/s 767 mmHg 60%
    13:00 +13°C° 0 mm 1 m/s 767 mmHg 58%
    14:00 +14°C° 0 mm 1 m/s 767 mmHg 55%
    15:00 +13°C° 0 mm 1 m/s 767 mmHg 56%
    16:00 +13°C° 0 mm 1 m/s 767 mmHg 57%
    17:00 +13°C° 0 mm 1 m/s 767 mmHg 58%
    18:00 +12°C° 0 mm 1 m/s 767 mmHg 63%
    19:00 +10°C° 0 mm 2 m/s 767 mmHg 68%
    20:00 +9°C° 0 mm 2 m/s 767 mmHg 73%
    21:00 +8°C° 0 mm 2 m/s 767 mmHg 72%
    22:00 +8°C° 0 mm 2 m/s 767 mmHg 72%
    23:00 +8°C° 0 mm 2 m/s 767 mmHg 72%

    22 Fevereiro, Sexta-feira

    Tempo Temperatura Precipitação Vento Pressão Humidade
    00:00 +8°C° 0 mm 2 m/s 767 mmHg 72%
    01:00 +7°C° 0 mm 2 m/s 766 mmHg 73%
    02:00 +7°C° 0 mm 2 m/s 766 mmHg 73%
    03:00 +7°C° 0 mm 2 m/s 765 mmHg 76%
    04:00 +7°C° 0 mm 2 m/s 765 mmHg 78%
    05:00 +5°C° 0 mm 3 m/s 764 mmHg 81%
    06:00 +7°C° 0 mm 3 m/s 764 mmHg 81%
    07:00 +7°C° 0 mm 3 m/s 763 mmHg 80%
    08:00 +7°C° 0 mm 3 m/s 763 mmHg 80%
    09:00 +6°C° 0.4 mm 4 m/s 763 mmHg 77%
    10:00 +7°C° 0.4 mm 4 m/s 762 mmHg 75%
    11:00 +7°C° 0.4 mm 4 m/s 762 mmHg 72%
    12:00 +7°C° 0.3 mm 4 m/s 761 mmHg 72%
    13:00 +8°C° 0.3 mm 5 m/s 760 mmHg 72%
    14:00 +8°C° 0.3 mm 5 m/s 760 mmHg 71%
    15:00 +8°C° 0 mm 5 m/s 760 mmHg 72%
    16:00 +8°C° 0 mm 4 m/s 759 mmHg 73%
    17:00 +10°C° 0 mm 4 m/s 759 mmHg 74%
    18:00 +8°C° 0.2 mm 4 m/s 760 mmHg 77%
    19:00 +8°C° 0.2 mm 4 m/s 760 mmHg 79%
    20:00 +7°C° 0.2 mm 5 m/s 761 mmHg 81%
    21:00 +5°C° 0.2 mm 7 m/s 761 mmHg 81%
    22:00 +2°C° 0.2 mm 9 m/s 762 mmHg 80%
    23:00 -1°C° 0.2 mm 11 m/s 763 mmHg 80%

    23 Fevereiro, Sábado

    Tempo Temperatura Precipitação Vento Pressão Humidade
    00:00 -2°C° 0.2 mm 11 m/s 764 mmHg 79%
    01:00 -3°C° 0.2 mm 11 m/s 764 mmHg 78%
    02:00 -4°C° 0.2 mm 11 m/s 765 mmHg 77%
    03:00 -6°C° 0.4 mm 11 m/s 766 mmHg 78%
    04:00 -7°C° 0.4 mm 11 m/s 766 mmHg 79%
    05:00 -8°C° 0.4 mm 11 m/s 767 mmHg 79%
    06:00 -8°C° 0.2 mm 11 m/s 768 mmHg 73%
    07:00 -8°C° 0.2 mm 10 m/s 768 mmHg 67%
    08:00 -8°C° 0.2 mm 10 m/s 769 mmHg 62%
    09:00 -7°C° 0 mm 10 m/s 769 mmHg 59%
    10:00 -7°C° 0 mm 10 m/s 770 mmHg 56%
    11:00 -5°C° 0 mm 10 m/s 770 mmHg 53%
    12:00 -5°C° 0 mm 9 m/s 770 mmHg 51%
    13:00 -4°C° 0 mm 9 m/s 770 mmHg 49%
    14:00 -4°C° 0 mm 9 m/s 770 mmHg 47%
    15:00 -4°C° 0 mm 9 m/s 770 mmHg 48%
    16:00 -4°C° 0 mm 8 m/s 770 mmHg 49%
    17:00 -4°C° 0 mm 8 m/s 770 mmHg 50%
    18:00 -5°C° 0 mm 8 m/s 770 mmHg 52%
    19:00 -5°C° 0 mm 8 m/s 770 mmHg 54%
    20:00 -6°C° 0 mm 8 m/s 770 mmHg 55%
    21:00 -6°C° 0 mm 8 m/s 770 mmHg 55%
    22:00 -6°C° 0 mm 8 m/s 770 mmHg 55%
    23:00 -6°C° 0 mm 9 m/s 770 mmHg 55%

    24 Fevereiro, Domingo

    Tempo Temperatura Precipitação Vento Pressão Humidade
    00:00 -6°C° 0 mm 9 m/s 770 mmHg 56%
    01:00 -8°C° 0 mm 9 m/s 770 mmHg 56%
    02:00 -8°C° 0 mm 9 m/s 769 mmHg 57%
    03:00 -8°C° 0 mm 9 m/s 769 mmHg 57%
    04:00 -9°C° 0 mm 9 m/s 769 mmHg 58%
    05:00 -9°C° 0 mm 9 m/s 769 mmHg 59%
    06:00 -9°C° 0 mm 9 m/s 769 mmHg 59%
    07:00 -9°C° 0 mm 9 m/s 769 mmHg 59%
    08:00 -9°C° 0 mm 9 m/s 769 mmHg 58%
    09:00 -8°C° 0 mm 10 m/s 769 mmHg 55%
    10:00 -7°C° 0 mm 10 m/s 769 mmHg 52%
    11:00 -5°C° 0 mm 10 m/s 770 mmHg 49%
    12:00 -4°C° 0 mm 10 m/s 769 mmHg 47%
    13:00 -4°C° 0 mm 10 m/s 769 mmHg 46%
    14:00 -3°C° 0 mm 10 m/s 769 mmHg 45%
    15:00 -4°C° 0 mm 10 m/s 769 mmHg 47%
    16:00 -4°C° 0 mm 9 m/s 769 mmHg 49%
    17:00 -4°C° 0 mm 9 m/s 769 mmHg 51%
    18:00 -5°C° 0 mm 9 m/s 769 mmHg 53%
    19:00 -7°C° 0 mm 10 m/s 769 mmHg 56%
    20:00 -7°C° 0 mm 10 m/s 769 mmHg 59%
    21:00 -8°C° 0 mm 10 m/s 769 mmHg 60%
    22:00 -8°C° 0 mm 10 m/s 769 mmHg 61%
    23:00 -8°C° 0 mm 10 m/s 769 mmHg 62%
    Mostrar mais